Weather History for TJSJ - January, 2014

Change the Weather History Date:

Wednesday, January 22, 2014

  Actual Average Record
Temperature  
Mean Temperature 82 °F 78 °F  
Max Temperature 91 °F 83 °F 91 °F (2014)
Min Temperature 73 °F 72 °F 64 °F (2005)
Degree Days  
Heating Degree Days 0 0  
Month to date heating degree days 0 0  
Since 1 July heating degree days 0 0  
Cooling Degree Days 17 12  
Month to date cooling degree days 343 282  
Year to date cooling degree days 343 282  
Growing Degree Days 32 (Base 50)    
Moisture  
Dew Point 69 °F    
Average Humidity 66    
Maximum Humidity 87    
Minimum Humidity 44    
Precipitation  
Precipitation 0.00 in 0.11 in 1.32 in (1997)
Month to date precipitation 1.71 2.87  
Year to date precipitation 1.71 2.87  
Sea Level Pressure  
Sea Level Pressure 30.00 in    
Wind  
Wind Speed 3 mph (ESE)    
Max Wind Speed 12 mph    
Max Gust Speed 17 mph    
Visibility 10 miles    
Events      
T = Trace of Precipitation, MM = Missing Value Source: NWS Daily Summary

Daily Weather History Graph

Daily Weather History Graph

Search for Another Location

Airport or City:

Trip Planner

Search our weather history database for the weather conditions in past years. The results will help you decide how hot, cold, wet, or windy it might be!

Date:

Astronomy

Jan. 22, 2014 Rise Set
Actual Time 6:59 AM AST 6:12 PM AST
Civil Twilight 6:36 AM AST 6:35 PM AST
Nautical Twilight 6:09 AM AST 7:02 PM AST
Astronomical Twilight 5:43 AM AST 7:28 PM AST
Moon 11:40 PM AST (1/22) 10:54 AM AST (1/22)
Length of Visible Light 11h 59m
Length of Day
11h 13m
Waning Gibbous, 66% of the Moon is Illuminated
Jan 22
Waning Gibbous
Jan 24
Last Quarter
Jan 30
New
Feb 6
First Quarter
Feb 14
Full

Hourly Weather History & Observations

Time (AST) Temp. Heat Index Dew Point Humidity Pressure Visibility Wind Dir Wind Speed Gust Speed Precip Events Conditions
12:56 AM 75.9 °F - 69.1 °F 79% 29.99 in 10.0 mi Calm Calm - N/A   Partly Cloudy
1:56 AM 75.9 °F - 70.0 °F 82% 29.98 in 10.0 mi Calm Calm - N/A   Partly Cloudy
2:56 AM 73.9 °F - 69.1 °F 85% 29.96 in 10.0 mi Calm Calm - N/A   Partly Cloudy
3:56 AM 75.0 °F - 70.0 °F 84% 29.96 in 10.0 mi Calm Calm - N/A   Partly Cloudy
4:56 AM 75.0 °F - 71.1 °F 87% 29.96 in 10.0 mi Calm Calm - N/A   Partly Cloudy
5:56 AM 75.0 °F - 71.1 °F 87% 29.98 in 10.0 mi Calm Calm - N/A   Partly Cloudy
6:56 AM 75.0 °F - 71.1 °F 87% 30.00 in 10.0 mi Calm Calm - N/A   Scattered Clouds
7:56 AM 75.9 °F - 71.1 °F 85% 30.01 in 10.0 mi Calm Calm - N/A   Scattered Clouds
8:56 AM 79.0 °F - 70.0 °F 74% 30.04 in 10.0 mi Calm Calm - N/A   Scattered Clouds
9:56 AM 80.1 °F 83.6 °F 71.1 °F 74% 30.05 in 10.0 mi Calm Calm - N/A   Scattered Clouds
10:56 AM 84.0 °F 87.0 °F 68.0 °F 58% 30.04 in 10.0 mi East 5.8 mph - N/A   Scattered Clouds
11:56 AM 84.9 °F 88.8 °F 69.1 °F 59% 30.02 in 10.0 mi East 5.8 mph - N/A   Scattered Clouds
12:56 PM 87.1 °F 90.6 °F 68.0 °F 53% 29.99 in 10.0 mi Variable 5.8 mph - N/A   Scattered Clouds
1:56 PM 89.1 °F 92.1 °F 66.9 °F 48% 29.96 in 10.0 mi Variable 5.8 mph - N/A   Partly Cloudy
2:56 PM 89.1 °F 91.0 °F 64.9 °F 45% 29.95 in 10.0 mi East 9.2 mph - N/A   Scattered Clouds
3:56 PM 88.0 °F 89.6 °F 64.9 °F 46% 29.96 in 10.0 mi SE 6.9 mph - N/A   Partly Cloudy
4:56 PM 87.1 °F 88.9 °F 64.9 °F 48% 29.97 in 10.0 mi SE 9.2 mph - N/A   Partly Cloudy
5:56 PM 84.9 °F 87.6 °F 66.9 °F 55% 30.00 in 10.0 mi SSE 5.8 mph - N/A   Partly Cloudy
6:56 PM 82.9 °F 87.0 °F 70.0 °F 65% 30.01 in 10.0 mi SE 3.5 mph - N/A   Scattered Clouds
7:56 PM 81.0 °F 84.9 °F 71.1 °F 72% 30.03 in 10.0 mi ESE 3.5 mph - N/A   Partly Cloudy
8:56 PM 80.1 °F 83.2 °F 70.0 °F 71% 30.05 in 10.0 mi Calm Calm - N/A   Partly Cloudy
9:56 PM 78.1 °F - 71.1 °F 79% 30.07 in 10.0 mi ESE 4.6 mph - N/A   Partly Cloudy
10:56 PM 79.0 °F - 70.0 °F 74% 30.08 in 10.0 mi Calm Calm - N/A   Partly Cloudy
11:56 PM 78.1 °F - 72.0 °F 81% 30.08 in 10.0 mi East 3.5 mph - N/A   Partly Cloudy